When you browse on this site, cookies collect data to enhance your experience and personalize the content and advertising you see.
Visit our Privacy Policy to learn more. By continuing to use the site, you agree to this use of cookies and data.

Stündliche Wetter Anastasivka

Heute, 4 August, Dienstag

Zeit Temperatur Niederschläge Wind Luftdruck Luftfeuchtigkeit
00:00 +19°C° 0 mm 2 m/S 752 mmHg 58%
01:00 +18°C° 0 mm 2 m/S 752 mmHg 59%
02:00 +18°C° 0 mm 2 m/S 752 mmHg 61%
03:00 +18°C° 0 mm 2 m/S 752 mmHg 62%
04:00 +18°C° 0 mm 2 m/S 752 mmHg 63%
05:00 +18°C° 0 mm 2 m/S 752 mmHg 64%
06:00 +20°C° 0 mm 2 m/S 752 mmHg 59%
07:00 +22°C° 0 mm 3 m/S 752 mmHg 53%
08:00 +25°C° 0 mm 3 m/S 752 mmHg 48%
09:00 +26°C° 0 mm 3 m/S 752 mmHg 43%
10:00 +28°C° 0 mm 4 m/S 752 mmHg 38%
11:00 +29°C° 0 mm 4 m/S 752 mmHg 34%
12:00 +30°C° 0 mm 4 m/S 752 mmHg 32%
13:00 +30°C° 0 mm 4 m/S 751 mmHg 31%
14:00 +31°C° 0 mm 3 m/S 751 mmHg 29%
15:00 +31°C° 0 mm 3 m/S 751 mmHg 29%
16:00 +31°C° 0 mm 3 m/S 751 mmHg 30%
17:00 +30°C° 0 mm 3 m/S 750 mmHg 30%
18:00 +28°C° 0 mm 3 m/S 750 mmHg 34%
19:00 +27°C° 0 mm 3 m/S 751 mmHg 37%
20:00 +25°C° 0 mm 2 m/S 751 mmHg 41%
21:00 +24°C° 0 mm 2 m/S 751 mmHg 44%
22:00 +23°C° 0 mm 2 m/S 751 mmHg 47%
23:00 +21°C° 0 mm 3 m/S 751 mmHg 50%

Morgen, 5 August, Mittwoch

Zeit Temperatur Niederschläge Wind Luftdruck Luftfeuchtigkeit
00:00 +21°C° 0 mm 2 m/S 751 mmHg 52%
01:00 +20°C° 0 mm 2 m/S 751 mmHg 55%
02:00 +19°C° 0 mm 2 m/S 752 mmHg 57%
03:00 +19°C° 0 mm 2 m/S 751 mmHg 58%
04:00 +19°C° 0 mm 2 m/S 751 mmHg 59%
05:00 +18°C° 0 mm 3 m/S 751 mmHg 60%
06:00 +20°C° 0 mm 3 m/S 752 mmHg 55%
07:00 +22°C° 0 mm 3 m/S 752 mmHg 50%
08:00 +26°C° 0 mm 4 m/S 752 mmHg 44%
09:00 +27°C° 0 mm 4 m/S 752 mmHg 40%
10:00 +28°C° 0 mm 4 m/S 752 mmHg 36%
11:00 +30°C° 0 mm 4 m/S 752 mmHg 32%
12:00 +30°C° 0 mm 4 m/S 752 mmHg 31%
13:00 +32°C° 0 mm 4 m/S 752 mmHg 29%
14:00 +33°C° 0 mm 4 m/S 752 mmHg 27%
15:00 +32°C° 0 mm 4 m/S 752 mmHg 28%
16:00 +32°C° 0 mm 4 m/S 752 mmHg 29%
17:00 +32°C° 0 mm 4 m/S 752 mmHg 29%
18:00 +29°C° 0 mm 4 m/S 752 mmHg 35%
19:00 +27°C° 0 mm 4 m/S 752 mmHg 40%
20:00 +25°C° 0 mm 3 m/S 752 mmHg 45%
21:00 +24°C° 0 mm 3 m/S 752 mmHg 48%
22:00 +22°C° 0 mm 3 m/S 753 mmHg 52%
23:00 +21°C° 0 mm 3 m/S 753 mmHg 55%

übermorgen, 6 August, Donnerstag

Zeit Temperatur Niederschläge Wind Luftdruck Luftfeuchtigkeit
00:00 +20°C° 0 mm 3 m/S 753 mmHg 59%
01:00 +20°C° 0 mm 3 m/S 753 mmHg 63%
02:00 +19°C° 0 mm 3 m/S 753 mmHg 67%
03:00 +19°C° 0 mm 3 m/S 753 mmHg 69%
04:00 +19°C° 0 mm 4 m/S 753 mmHg 72%
05:00 +18°C° 0 mm 4 m/S 753 mmHg 74%
06:00 +20°C° 0 mm 4 m/S 753 mmHg 67%
07:00 +22°C° 0 mm 5 m/S 753 mmHg 60%
08:00 +26°C° 0 mm 5 m/S 753 mmHg 53%
09:00 +27°C° 0 mm 5 m/S 753 mmHg 48%
10:00 +29°C° 0 mm 5 m/S 754 mmHg 43%
11:00 +30°C° 0 mm 6 m/S 754 mmHg 39%
12:00 +32°C° 0 mm 5 m/S 754 mmHg 37%
13:00 +33°C° 0 mm 5 m/S 753 mmHg 35%
14:00 +34°C° 0 mm 5 m/S 753 mmHg 32%
15:00 +34°C° 0 mm 5 m/S 753 mmHg 33%
16:00 +34°C° 0 mm 5 m/S 753 mmHg 33%
17:00 +34°C° 0 mm 5 m/S 753 mmHg 34%
18:00 +32°C° 0 mm 5 m/S 753 mmHg 39%
19:00 +29°C° 0 mm 5 m/S 753 mmHg 45%
20:00 +27°C° 0 mm 4 m/S 753 mmHg 50%
21:00 +26°C° 0 mm 4 m/S 753 mmHg 53%
22:00 +25°C° 0 mm 4 m/S 754 mmHg 56%
23:00 +23°C° 0 mm 4 m/S 754 mmHg 60%

7 August, Freitag

Zeit Temperatur Niederschläge Wind Luftdruck Luftfeuchtigkeit
00:00 +22°C° 0 mm 4 m/S 754 mmHg 63%
01:00 +22°C° 0 mm 4 m/S 754 mmHg 67%
02:00 +21°C° 0 mm 4 m/S 754 mmHg 71%
03:00 +21°C° 0 mm 4 m/S 754 mmHg 72%
04:00 +20°C° 0 mm 4 m/S 754 mmHg 74%
05:00 +20°C° 0 mm 4 m/S 754 mmHg 75%
06:00 +22°C° 0 mm 4 m/S 754 mmHg 68%
07:00 +25°C° 0 mm 5 m/S 754 mmHg 61%
08:00 +27°C° 0 mm 5 m/S 754 mmHg 54%
09:00 +28°C° 0 mm 5 m/S 754 mmHg 49%
10:00 +30°C° 0 mm 5 m/S 754 mmHg 44%
11:00 +32°C° 0 mm 6 m/S 754 mmHg 39%
12:00 +33°C° 0 mm 6 m/S 754 mmHg 36%
13:00 +33°C° 0 mm 6 m/S 753 mmHg 33%
14:00 +34°C° 0 mm 6 m/S 753 mmHg 30%
15:00 +34°C° 0 mm 6 m/S 753 mmHg 30%
16:00 +34°C° 0 mm 6 m/S 753 mmHg 30%
17:00 +33°C° 0 mm 6 m/S 752 mmHg 30%
18:00 +30°C° 0 mm 5 m/S 752 mmHg 37%
19:00 +29°C° 0 mm 5 m/S 752 mmHg 45%
20:00 +27°C° 0 mm 4 m/S 752 mmHg 52%
21:00 +26°C° 0 mm 4 m/S 752 mmHg 58%
22:00 +25°C° 0 mm 5 m/S 752 mmHg 64%
23:00 +25°C° 0 mm 5 m/S 752 mmHg 69%

8 August, Samstag

Zeit Temperatur Niederschläge Wind Luftdruck Luftfeuchtigkeit
00:00 +23°C° 0 mm 5 m/S 752 mmHg 72%
01:00 +22°C° 0 mm 5 m/S 752 mmHg 75%
02:00 +22°C° 0 mm 5 m/S 752 mmHg 77%
03:00 +21°C° 0 mm 5 m/S 752 mmHg 78%
04:00 +20°C° 0 mm 5 m/S 752 mmHg 79%
05:00 +20°C° 0 mm 5 m/S 752 mmHg 80%
06:00 +21°C° 0 mm 5 m/S 752 mmHg 75%
07:00 +22°C° 0 mm 6 m/S 752 mmHg 69%
08:00 +24°C° 0 mm 6 m/S 752 mmHg 64%
09:00 +26°C° 0 mm 6 m/S 751 mmHg 59%
10:00 +28°C° 0 mm 6 m/S 751 mmHg 54%
11:00 +29°C° 0 mm 6 m/S 751 mmHg 48%
12:00 +30°C° 0 mm 6 m/S 751 mmHg 46%
13:00 +30°C° 0 mm 6 m/S 750 mmHg 44%
14:00 +32°C° 0 mm 6 m/S 750 mmHg 42%
15:00 +30°C° 0 mm 6 m/S 750 mmHg 42%
16:00 +30°C° 0 mm 6 m/S 749 mmHg 42%
17:00 +29°C° 0 mm 6 m/S 749 mmHg 42%
18:00 +28°C° 0 mm 6 m/S 749 mmHg 43%
19:00 +27°C° 0 mm 6 m/S 749 mmHg 44%
20:00 +26°C° 0 mm 6 m/S 749 mmHg 45%
21:00 +25°C° 0 mm 5 m/S 749 mmHg 51%
22:00 +23°C° 0 mm 5 m/S 749 mmHg 56%
23:00 +22°C° 0 mm 5 m/S 749 mmHg 61%

9 August, Sonntag

Zeit Temperatur Niederschläge Wind Luftdruck Luftfeuchtigkeit
00:00 +21°C° 0 mm 5 m/S 749 mmHg 64%
01:00 +21°C° 0 mm 5 m/S 749 mmHg 66%
02:00 +20°C° 0 mm 5 m/S 749 mmHg 68%
03:00 +20°C° 0 mm 5 m/S 749 mmHg 69%
04:00 +19°C° 0 mm 5 m/S 749 mmHg 69%
05:00 +19°C° 0 mm 5 m/S 749 mmHg 69%
06:00 +20°C° 0 mm 6 m/S 749 mmHg 65%
07:00 +21°C° 0 mm 6 m/S 749 mmHg 61%
08:00 +23°C° 0 mm 6 m/S 749 mmHg 57%
09:00 +24°C° 0 mm 6 m/S 749 mmHg 52%
10:00 +26°C° 0 mm 6 m/S 749 mmHg 46%
11:00 +28°C° 0 mm 6 m/S 749 mmHg 41%
12:00 +28°C° 0 mm 7 m/S 749 mmHg 38%
13:00 +29°C° 0 mm 7 m/S 749 mmHg 35%
14:00 +29°C° 0 mm 7 m/S 749 mmHg 32%
15:00 +29°C° 0 mm 7 m/S 748 mmHg 32%
16:00 +29°C° 0 mm 6 m/S 748 mmHg 32%
17:00 +28°C° 0 mm 6 m/S 748 mmHg 32%
18:00 +26°C° 0 mm 6 m/S 749 mmHg 37%
19:00 +25°C° 0 mm 5 m/S 749 mmHg 42%
20:00 +22°C° 0 mm 4 m/S 749 mmHg 47%
21:00 +21°C° 0 mm 4 m/S 749 mmHg 51%
22:00 +20°C° 0 mm 4 m/S 750 mmHg 55%
23:00 +19°C° 0 mm 4 m/S 750 mmHg 59%
Mehr zeigen